Location: Monrovia
(34.7865°N, 86.7139°W)
Time: 00:54:09
(UTC+00:00)

Cosmos 2366 rocket - Pass Details

Date: 14 July 2020
Orbit: 954 x 998 km, 82.9° (Epoch: 12 August)

Event Time Altitude Azimuth Distance (km) Brightness Sun altitude
Exits shadow 04:03:44 53° 84° (E) 1,207 4.3 -27.9°
Drops below altitude 10° 04:09:39 10° 17° (NNE) 2,761 6.9 -28.5°
Sets 04:12:13 0° 13° (NNE) 3,708 7.7 -28.8°
